TimeEDT,TemperatureF,Dew PointF,Humidity,Sea Level PressureIn,VisibilityMPH,Wind Direction,Wind SpeedMPH,Gust SpeedMPH,PrecipitationIn,Events,Conditions,WindDirDegrees,DateUTC
12:52 AM,37.9,32.0,79,30.20,10.0,Calm,Calm,-,N/A,,Mostly Cloudy,0,2012-10-08 04:52:00
1:52 AM,37.9,33.1,83,30.19,10.0,Calm,Calm,-,N/A,,Mostly Cloudy,0,2012-10-08 05:52:00
2:52 AM,39.0,32.0,76,30.21,10.0,Calm,Calm,-,N/A,,Mostly Cloudy,0,2012-10-08 06:52:00
3:52 AM,37.9,32.0,79,30.21,10.0,North,3.5,-,N/A,,Mostly Cloudy,350,2012-10-08 07:52:00
4:52 AM,33.1,32.0,96,30.22,8.0,South,3.5,-,N/A,,Partly Cloudy,170,2012-10-08 08:52:00
5:52 AM,36.0,33.1,89,30.22,10.0,Calm,Calm,-,N/A,,Scattered Clouds,0,2012-10-08 09:52:00
6:52 AM,37.9,33.1,83,30.23,10.0,Calm,Calm,-,N/A,,Overcast,0,2012-10-08 10:52:00
7:52 AM,37.9,33.1,83,30.23,10.0,Calm,Calm,-,N/A,,Overcast,0,2012-10-08 11:52:00
8:52 AM,37.9,35.1,89,30.24,8.0,Calm,Calm,-,N/A,Fog,Patches of Fog,0,2012-10-08 12:52:00
9:52 AM,43.0,36.0,76,30.24,10.0,ENE,3.5,-,N/A,,Mostly Cloudy,70,2012-10-08 13:52:00
10:52 AM,45.0,33.1,63,30.27,10.0,SE,3.5,-,N/A,,Mostly Cloudy,140,2012-10-08 14:52:00
11:52 AM,46.9,32.0,56,30.25,10.0,Calm,Calm,-,N/A,,Mostly Cloudy,0,2012-10-08 15:52:00
12:52 PM,51.1,34.0,52,30.23,10.0,Calm,Calm,-,N/A,,Mostly Cloudy,0,2012-10-08 16:52:00
1:52 PM,53.1,34.0,48,30.21,10.0,NE,4.6,-,N/A,,Scattered Clouds,50,2012-10-08 17:52:00
2:52 PM,53.1,33.1,47,30.19,10.0,Calm,Calm,-,N/A,,Scattered Clouds,0,2012-10-08 18:52:00
3:52 PM,53.1,32.0,45,30.17,10.0,Calm,Calm,-,N/A,,Partly Cloudy,0,2012-10-08 19:52:00
4:52 PM,55.0,34.0,45,30.15,10.0,Calm,Calm,-,N/A,,Partly Cloudy,0,2012-10-08 20:52:00
5:52 PM,54.0,34.0,47,30.14,10.0,South,4.6,-,N/A,,Scattered Clouds,180,2012-10-08 21:52:00
6:52 PM,52.0,34.0,50,30.14,10.0,Calm,Calm,-,N/A,,Partly Cloudy,0,2012-10-08 22:52:00
7:52 PM,46.4,35.6,66,30.15,10.0,Calm,Calm,-,N/A,,Clear,0,2012-10-08 23:52:00
8:52 PM,45.0,36.0,71,30.16,10.0,SSE,4.6,-,N/A,,Clear,160,2012-10-09 00:52:00
9:52 PM,44.1,37.0,76,30.16,10.0,SSE,4.6,-,N/A,,Clear,160,2012-10-09 01:52:00
10:52 PM,45.0,39.0,80,30.16,10.0,SSE,11.5,-,N/A,,Clear,160,2012-10-09 02:52:00
11:52 PM,42.1,37.0,82,30.18,10.0,South,5.8,-,N/A,,Clear,170,2012-10-09 03:52:00